DW7214 Weather Reports


time (UTC)temp
F
wind
direction
speed
knots
gust
knots
rain 1hr
in
rain 24hr
in
rain mn
in
humidity
%
barometer
mb
20210228194325 49 183 4.3 0.0 0.00 0.00 0.00 64 1024.0
20210228193813 49 242 5.2 0.0 0.00 0.00 0.00 64 1024.0
20210228193318 48 202 5.2 0.0 0.00 0.00 0.00 64 1024.1
20210228193026 48 193 4.3 0.0 0.00 0.00 0.00 64 1024.1
20210228192316 49 194 2.6 0.0 0.00 0.00 0.00 65 1024.1
20210228191826 49 208 2.6 0.0 0.00 0.00 0.00 64 1024.4
20210228191318 49 197 4.3 0.0 0.00 0.00 0.00 64 1024.4
20210228190841 49 154 3.5 0.0 0.00 0.00 0.00 64 1024.4
20210228190321 48 164 4.3 0.0 0.00 0.00 0.00 65 1024.5
20210228185813 48 146 3.5 0.0 0.00 0.00 0.00 64 1024.5
20210228185325 49 119 0.9 0.0 0.00 0.00 0.00 64 1024.5
20210228184821 49 196 0.0 0.0 0.00 0.00 0.00 62 1024.5
20210228184312 50 203 0.9 0.0 0.00 0.00 0.00 53 1024.5
20210228183820 49 203 0.9 0.0 0.00 0.00 0.00 56 1024.5
20210228183317 49 201 0.9 0.0 0.00 0.00 0.00 43 1024.7
20210228183038 49 200 0.9 0.0 0.00 0.00 0.00 40 1024.6
20210228182319 48 196 0.0 0.0 0.00 0.00 0.00 24 1024.6
20210228181830 46 196 0.0 0.0 0.00 0.00 0.00 2 1024.7
20210228181322 45 196 0.0 0.0 0.00 0.00 0.00 100 1024.7
20210228180840 44 196 0.0 0.0 0.00 0.00 0.00 100 1024.7
20210228180322 43 196 0.0 0.0 0.00 0.00 0.00 100 1024.8
20210228175817 43 196 0.0 0.0 0.00 0.00 0.00 100 1024.8
20210228175343 43 196 0.0 0.0 0.00 0.00 0.00 100 1024.8
20210228174830 43 196 0.0 0.0 0.00 0.00 0.00 100 1024.9
20210228174318 43 196 0.9 0.0 0.00 0.00 0.00 100 1024.9
20210228173822 43 196 0.9 0.0 0.00 0.00 0.00 100 1024.9
20210228173329 43 196 0.9 0.0 0.00 0.00 0.00 100 1025.1
20210228172910 42 196 0.9 0.0 0.00 0.00 0.00 100 1025.1
20210228172319 42 196 0.9 0.0 0.00 0.00 0.00 100 1025.1
20210228171820 41 196 0.9 0.0 0.00 0.00 0.00 100 1025.1
20210228171328 41 196 0.9 0.0 0.00 0.00 0.00 100 1025.1
20210228170825 40 196 0.9 0.0 0.00 0.00 0.00 100 1025.1
20210228170329 40 196 0.9 0.0 0.00 0.00 0.00 100 1025.1
20210228165820 39 196 0.0 0.0 0.00 0.00 0.00 100 1025.1
20210228165316 39 196 0.9 0.0 0.00 0.00 0.00 100 1025.1
20210228164827 39 196 0.9 0.0 0.00 0.00 0.00 100 1025.1
20210228164325 38 196 0.9 0.0 0.00 0.00 0.00 100 1025.0
20210228163824 38 196 0.9 0.0 0.00 0.00 0.00 100 1025.0
20210228163317 38 196 0.0 0.0 0.00 0.00 0.00 100 1025.1
20210228162950 38 196 0.0 0.0 0.00 0.00 0.00 100 1025.1
20210228162403 38 196 0.0 0.0 0.00 0.00 0.00 100 1025.1
20210228161817 38 196 0.0 0.0 0.00 0.00 0.00 100 1025.1
20210228161309 38 196 0.0 0.0 0.00 0.00 0.00 100 1025.1
20210228160832 37 196 0.0 0.0 0.00 0.00 0.00 100 1025.1
20210228160319 38 196 0.9 0.0 0.00 0.00 0.00 100 1025.1
20210228155829 38 196 0.9 0.0 0.00 0.00 0.00 100 1025.1
20210228155317 38 196 0.9 0.0 0.00 0.00 0.00 100 1025.1
20210228154831 37 196 0.9 0.0 0.00 0.00 0.00 100 1025.1
20210228154326 37 196 0.9 0.0 0.00 0.00 0.00 100 1025.1
20210228153814 37 196 0.9 0.0 0.00 0.00 0.00 100 1025.1
20210228153329 37 196 0.0 0.0 0.00 0.00 0.00 100 1025.1
20210228152957 37 196 0.0 0.0 0.00 0.00 0.00 100 1025.1
20210228152313 37 196 0.0 0.0 0.00 0.00 0.00 100 1025.1
20210228151824 38 196 0.0 0.0 0.00 0.00 0.00 100 1025.0
20210228151316 38 196 0.0 0.0 0.00 0.00 0.00 100 1025.0
20210228150844 38 196 0.0 0.0 0.00 0.00 0.00 100 1025.0
20210228150317 38 196 0.0 0.0 0.00 0.00 0.00 100 1024.8
20210228145813 38 196 0.0 0.0 0.00 0.00 0.00 100 1024.8
20210228145325 38 196 0.0 0.0 0.00 0.00 0.00 100 1024.8
20210228144829 38 196 0.0 0.0 0.00 0.00 0.00 100 1024.8
20210228144309 38 196 0.0 0.0 0.00 0.00 0.00 100 1024.8
20210228143821 38 196 0.0 0.0 0.00 0.00 0.00 100 1024.8
20210228143314 38 196 0.0 0.0 0.00 0.00 0.00 100 1024.7
20210228143042 38 196 0.9 0.0 0.00 0.00 0.00 100 1024.7
20210228142316 38 196 0.9 0.0 0.00 0.00 0.00 100 1024.7
20210228141812 38 196 0.9 0.0 0.00 0.00 0.00 100 1024.6
20210228141324 38 196 0.9 0.0 0.00 0.00 0.00 100 1024.6
20210228140825 38 196 0.9 0.0 0.00 0.00 0.00 100 1024.6
20210228140328 38 196 0.0 0.0 0.00 0.00 0.00 100 1024.6
20210228135819 38 196 0.0 0.0 0.00 0.00 0.00 100 1024.6
20210228135313 38 196 0.0 0.0 0.00 0.00 0.00 100 1024.6
20210228134825 38 196 0.0 0.0 0.00 0.00 0.00 100 1024.6
20210228134315 38 196 0.0 0.0 0.00 0.00 0.00 100 1024.6
20210228133826 38 196 0.0 0.0 0.00 0.00 0.00 100 1024.6
20210228133324 38 196 0.0 0.0 0.00 0.00 0.00 100 1024.5
20210228132948 38 196 0.0 0.0 0.00 0.00 0.00 100 1024.5
20210228132347 39 196 0.0 0.0 0.00 0.00 0.00 100 1024.6
20210228131819 39 196 0.0 0.0 0.00 0.00 0.00 100 1024.5
20210228131311 39 196 0.0 0.0 0.00 0.00 0.00 100 1024.5
20210228130833 38 196 0.0 0.0 0.00 0.00 0.00 100 1024.5
20210228130315 39 196 0.0 0.0 0.00 0.00 0.00 100 1024.5
20210228125826 39 196 0.0 0.0 0.00 0.00 0.00 100 1024.5
20210228125327 39 196 0.0 0.0 0.00 0.00 0.00 100 1024.5
20210228124814 39 196 0.0 0.0 0.00 0.00 0.00 100 1024.6
20210228124324 39 196 0.0 0.0 0.00 0.00 0.00 100 1024.6
20210228123818 39 196 0.0 0.0 0.00 0.00 0.00 100 1024.6
20210228123314 40 196 0.9 0.0 0.00 0.00 0.00 100 1024.6
20210228123026 40 196 0.9 0.0 0.00 0.00 0.00 100 1024.6
20210228122327 40 196 0.0 0.0 0.00 0.00 0.00 100 1024.6
20210228121849 40 196 0.0 0.0 0.00 0.00 0.00 100 1024.5
20210228121317 40 196 0.0 0.0 0.00 0.00 0.00 100 1024.5
20210228120837 41 196 0.0 0.0 0.00 0.00 0.00 100 1024.5
20210228120325 41 196 0.0 0.0 0.00 0.00 0.00 100 1024.6
20210228115816 41 196 0.0 0.0 0.00 0.00 0.00 100 1024.6
20210228115525 41 196 0.0 0.0 0.00 0.00 0.00 100 1024.6
20210228115105 41 196 0.0 0.0 0.00 0.00 0.00 100 1024.5
20210228114312 41 196 0.0 0.0 0.00 0.00 0.00 100 1024.5
20210228113819 42 196 0.0 0.0 0.00 0.00 0.00 100 1024.5
20210228113310 42 196 0.0 0.0 0.00 0.00 0.00 100 1024.4
20210228112946 42 196 0.0 0.0 0.00 0.00 0.00 100 1024.4
20210228112317 42 196 0.0 0.0 0.00 0.00 0.00 100 1024.4
20210228111810 42 196 0.0 0.0 0.00 0.00 0.00 100 1024.5
20210228111323 42 196 0.0 0.0 0.00 0.00 0.00 100 1024.5
20210228110842 42 196 0.0 0.0 0.00 0.00 0.00 100 1024.5
20210228110329 42 196 0.0 0.0 0.00 0.00 0.00 100 1024.5
20210228105823 43 196 0.0 0.0 0.00 0.00 0.00 2 1024.5
20210228105311 43 196 0.0 0.0 0.00 0.00 0.00 4 1024.5
20210228104822 43 196 0.0 0.0 0.00 0.00 0.00 6 1024.6
20210228104316 43 196 0.0 0.0 0.00 0.00 0.00 9 1024.6
20210228103818 43 196 0.0 0.0 0.00 0.00 0.00 10 1024.6
20210228103327 43 196 0.0 0.0 0.00 0.00 0.00 13 1024.6
20210228103034 43 196 0.0 0.0 0.00 0.00 0.00 15 1024.6
20210228102358 43 196 0.0 0.0 0.00 0.00 0.00 16 1024.6
20210228101825 43 196 0.0 0.0 0.00 0.00 0.00 16 1024.6
20210228101317 43 196 0.0 0.0 0.00 0.00 0.00 16 1024.6
20210228100836 43 196 0.0 0.0 0.00 0.00 0.00 16 1024.6
20210228100315 43 196 0.9 0.0 0.00 0.00 0.00 17 1024.6
20210228095827 43 196 0.0 0.0 0.00 0.00 0.00 17 1024.6
20210228095328 43 196 0.0 0.0 0.00 0.00 0.00 18 1024.6
20210228094813 43 196 0.9 0.0 0.00 0.00 0.00 19 1024.5
20210228094326 43 196 0.9 0.0 0.00 0.00 0.00 19 1024.5
20210228093819 43 196 0.0 0.0 0.00 0.00 0.00 21 1024.5
20210228093310 43 196 0.0 0.0 0.00 0.00 0.00 22 1024.6
20210228092913 43 196 0.0 0.0 0.00 0.00 0.00 25 1024.6
20210228092338 43 196 0.0 0.0 0.00 0.00 0.00 26 1024.6
20210228091828 44 196 0.0 0.0 0.00 0.00 0.00 27 1024.6
20210228091317 44 196 0.0 0.0 0.00 0.00 0.00 28 1024.6
20210228090837 44 196 0.0 0.0 0.00 0.00 0.00 30 1024.6
20210228090320 44 196 0.0 0.0 0.00 0.00 0.00 34 1024.5
20210228085813 44 196 0.0 0.0 0.00 0.00 0.00 35 1024.5
20210228084844 44 196 0.0 0.0 0.00 0.00 0.00 37 1024.5
20210228084327 44 196 0.0 0.0 0.00 0.00 0.00 39 1024.5
20210228083819 44 196 0.0 0.0 0.00 0.00 0.00 38 1024.5
20210228083313 44 196 0.0 0.0 0.00 0.00 0.00 37 1024.7
20210228082859 44 196 0.0 0.0 0.00 0.00 0.00 37 1024.7
20210228082315 44 196 0.0 0.0 0.00 0.00 0.00 35 1024.7
20210228081827 44 196 0.0 0.0 0.00 0.00 0.00 33 1024.6
20210228081324 44 196 0.0 0.0 0.00 0.00 0.00 34 1024.6
20210228080828 44 196 0.0 0.0 0.00 0.00 0.00 35 1024.6
20210228080326 44 196 0.0 0.0 0.00 0.00 0.01 36 1024.7
20210228075818 44 196 0.0 0.0 0.00 0.00 0.01 37 1024.7
20210228075316 44 196 0.0 0.0 0.00 0.00 0.01 40 1024.7
20210228074825 44 196 0.0 0.0 0.00 0.00 0.01 42 1025.0
20210228074313 44 196 0.9 0.0 0.00 0.00 0.01 45 1025.0
20210228073822 44 196 0.9 0.0 0.00 0.00 0.01 48 1025.0
20210228073316 44 196 0.0 0.0 0.00 0.00 0.01 52 1025.0
20210228072921 45 196 0.9 0.0 0.00 0.00 0.01 54 1025.0
20210228072359 45 196 0.9 0.0 0.00 0.00 0.01 56 1025.0
20210228071816 45 196 2.6 0.0 0.00 0.00 0.01 56 1024.6
20210228071328 44 218 2.6 0.0 0.00 0.00 0.01 49 1024.6
20210228070829 44 221 2.6 0.0 0.00 0.00 0.01 43 1024.6
20210228070313 45 221 3.5 0.0 0.00 0.00 0.01 43 1024.7
20210228065823 45 221 3.5 0.0 0.00 0.00 0.01 41 1024.7
20210228065314 44 221 2.6 0.0 0.00 0.00 0.01 39 1024.7
20210228064826 45 221 2.6 0.0 0.00 0.00 0.01 39 1024.8
20210228064322 44 221 2.6 0.0 0.00 0.00 0.01 38 1024.7
20210228063833 45 221 2.6 0.0 0.00 0.00 0.01 40 1024.7
20210228063359 45 221 2.6 0.0 0.00 0.00 0.01 42 1024.9
20210228063054 45 221 1.7 0.0 0.00 0.00 0.01 44 1024.9
20210228062432 45 221 0.9 0.0 0.00 0.00 0.01 45 1024.9
20210228061818 45 221 0.9 0.0 0.00 0.00 0.01 47 1024.8
20210228061313 45 221 1.7 0.0 0.00 0.00 0.01 47 1024.8
20210228060853 45 221 1.7 0.0 0.00 0.00 0.01 47 1024.8
20210228060313 45 221 1.7 0.0 0.00 0.00 0.01 47 1024.8
20210228055824 45 221 1.7 0.0 0.00 0.00 0.01 48 1024.8
20210228055327 45 221 1.7 0.0 0.00 0.00 0.01 49 1024.8
20210228054822 45 221 1.7 0.0 0.00 0.00 0.01 50 1024.9
20210228054326 45 221 2.6 0.0 0.00 0.00 0.01 51 1024.9
20210228053834 45 221 2.6 0.0 0.00 0.00 0.01 52 1024.9
20210228053331 45 221 2.6 0.0 0.00 0.00 0.01 52 1024.7
20210228053113 45 221 2.6 0.0 0.00 0.00 0.01 52 1024.7
20210228052320 45 221 2.6 0.0 0.00 0.00 0.01 51 1024.7
20210228051826 45 221 2.6 0.0 0.00 0.00 0.01 49 1024.7
20210228051320 45 221 3.5 0.0 0.00 0.00 0.01 48 1024.7
20210228050843 45 221 3.5 0.0 0.00 0.00 0.01 49 1024.7
20210228050324 45 221 3.5 0.0 0.00 0.00 0.01 50 1024.6
20210228045823 45 221 3.5 0.0 0.00 0.00 0.01 51 1024.6
20210228045339 45 221 3.5 0.0 0.00 0.00 0.01 53 1024.6
20210228044819 45 221 3.5 0.0 0.00 0.00 0.01 54 1024.7
20210228044321 45 221 2.6 0.0 0.00 0.00 0.01 54 1024.7
20210228043823 45 222 2.6 0.0 0.00 0.00 0.01 55 1024.7
20210228043319 45 222 2.6 0.0 0.00 0.00 0.01 56 1024.7
20210228042926 45 223 2.6 0.0 0.00 0.00 0.01 56 1024.7
20210228042327 45 223 2.6 0.0 0.00 0.00 0.01 56 1024.7
20210228041815 45 223 3.5 0.0 0.00 0.00 0.01 57 1024.7
20210228041328 45 223 2.6 0.0 0.00 0.00 0.01 58 1024.7
20210228040853 45 224 2.6 0.0 0.00 0.00 0.01 58 1024.7
20210228040326 45 224 2.6 0.0 0.00 0.00 0.01 59 1024.5
20210228035815 45 223 2.6 0.0 0.00 0.00 0.01 59 1024.5
20210228035327 45 222 3.5 0.0 0.00 0.00 0.01 60 1024.5
20210228034819 45 221 4.3 0.0 0.00 0.00 0.01 60 1024.5
20210228034315 45 217 4.3 0.0 0.00 0.00 0.01 60 1024.5
20210228034035 45 221 3.5 0.0 0.00 0.00 0.01 60 1024.5
20210228032400 45 215 2.6 0.0 0.00 0.00 0.01 59 1024.5
20210228031343 45 214 3.5 0.0 0.00 0.00 0.01 61 1024.4
20210228030311 45 216 2.6 0.0 0.00 0.00 0.01 62 1024.4
20210228025823 45 216 2.6 0.0 0.00 0.00 0.01 62 1024.4
20210228025325 45 215 1.7 0.0 0.00 0.00 0.01 63 1024.4
20210228024920 45 215 2.6 0.0 0.00 0.00 0.01 64 1024.2
20210228024321 45 215 3.5 0.0 0.00 0.00 0.01 64 1024.2
20210228023829 45 215 3.5 0.0 0.00 0.00 0.01 64 1024.2
20210228023323 45 213 3.5 0.0 0.00 0.00 0.01 64 1024.0
20210228022927 45 217 3.5 0.0 0.00 0.00 0.01 64 1024.0
20210228022328 45 217 3.5 0.0 0.00 0.00 0.01 65 1024.0
20210228021818 45 217 2.6 0.0 0.00 0.00 0.01 65 1024.0
20210228021315 45 217 2.6 0.0 0.00 0.00 0.01 65 1024.0
20210228020835 45 217 2.6 0.0 0.00 0.00 0.01 65 1024.0
20210228020322 45 212 3.5 0.0 0.00 0.00 0.01 65 1023.8
20210228015813 45 209 3.5 0.0 0.00 0.00 0.01 65 1023.8
20210228015327 45 209 2.6 0.0 0.00 0.00 0.01 65 1023.8
20210228014815 45 209 2.6 0.0 0.00 0.00 0.01 65 1023.9
20210228014333 45 209 3.5 0.0 0.00 0.00 0.01 64 1023.9
20210228013816 45 212 3.5 0.0 0.00 0.00 0.01 64 1023.9
20210228013321 45 216 2.6 0.0 0.00 0.00 0.01 64 1024.0
20210228012927 45 217 3.5 0.0 0.00 0.00 0.01 64 1024.0
20210228012323 45 217 3.5 0.0 0.00 0.00 0.01 65 1024.0
20210228011811 46 213 2.6 0.0 0.00 0.00 0.01 65 1023.9
20210228011323 46 211 2.6 0.0 0.00 0.00 0.01 64 1023.9
20210228010858 46 211 3.5 0.0 0.00 0.00 0.01 65 1023.9
20210228010325 46 213 3.5 0.0 0.00 0.00 0.01 65 1024.0
20210228005817 46 213 2.6 0.0 0.00 0.00 0.01 66 1024.0
20210228005407 46 216 1.7 0.0 0.00 0.00 0.01 66 1024.0
20210228004911 46 216 1.7 0.0 0.00 0.00 0.01 66 1024.0
20210228004318 46 216 2.6 0.0 0.00 0.00 0.01 66 1024.0
20210228003828 46 216 2.6 0.0 0.00 0.00 0.01 66 1024.0
20210228003324 46 233 2.6 0.0 0.00 0.00 0.01 66 1024.0
20210228002933 46 213 3.5 0.0 0.00 0.00 0.01 66 1024.0
20210228002327 46 214 2.6 0.0 0.00 0.00 0.01 65 1024.0
20210228001817 47 215 3.5 0.0 0.00 0.00 0.01 66 1024.0
20210228001329 47 217 3.5 0.0 0.00 0.00 0.01 66 1024.0
20210228000837 47 211 3.5 0.0 0.00 0.00 0.01 65 1024.0
20210228000311 47 215 3.5 0.0 0.00 0.00 0.01 65 1024.1
20210227235823 47 214 2.6 0.0 0.00 0.00 0.01 65 1024.1
20210227235444 47 207 2.6 0.0 0.00 0.00 0.01 65 1024.1
20210227234844 47 206 3.5 0.0 0.00 0.00 0.01 65 1024.1
20210227234325 47 232 4.3 0.0 0.00 0.00 0.01 64 1024.1
20210227233931 47 206 3.5 0.0 0.00 0.00 0.01 64 1024.6
20210227233316 47 227 3.5 0.0 0.00 0.00 0.01 64 1024.0
20210227233021 48 209 4.3 0.0 0.00 0.00 0.01 64 1024.0
20210227232323 48 240 5.2 0.0 0.00 0.00 0.01 64 1024.0
20210227231829 48 221 4.3 0.0 0.00 0.00 0.01 64 1023.9
20210227231321 49 217 3.5 0.0 0.00 0.00 0.01 63 1024.0
20210227230842 49 221 2.6 0.0 0.00 0.00 0.01 62 1024.0
20210227230322 49 232 1.7 0.0 0.00 0.00 0.01 61 1024.0
20210227225819 49 232 1.7 0.0 0.00 0.00 0.01 62 1024.0
20210227225329 49 231 2.6 0.0 0.00 0.00 0.01 60 1024.0
20210227224858 49 231 3.5 0.0 0.00 0.00 0.01 59 1024.0
20210227224314 49 220 2.6 0.0 0.00 0.00 0.01 61 1024.0
20210227223824 49 242 1.7 0.0 0.00 0.00 0.01 62 1024.0
20210227223317 48 245 2.6 0.0 0.00 0.00 0.01 61 1023.9
20210227222847 49 246 2.6 0.0 0.00 0.00 0.01 61 1024.0
20210227222338 49 240 2.6 0.0 0.00 0.00 0.01 61 1024.0
20210227221817 49 252 1.7 0.0 0.00 0.00 0.01 61 1023.9
20210227221329 49 258 0.9 0.0 0.00 0.00 0.01 59 1023.9
20210227220856 49 288 2.6 0.0 0.00 0.00 0.01 62 1023.9
20210227220325 49 219 5.2 0.0 0.00 0.00 0.01 64 1023.8
20210227215826 48 202 7.0 0.0 0.00 0.00 0.01 64 1023.7
20210227215328 48 207 4.3 0.0 0.00 0.00 0.01 63 1023.7
20210227214820 49 217 2.6 0.0 0.00 0.00 0.01 64 1023.9
20210227214312 48 240 3.5 0.0 0.00 0.00 0.01 65 1023.9
20210227213834 48 216 5.2 0.0 0.00 0.00 0.01 65 1023.9
20210227213318 47 213 4.3 0.0 0.00 0.00 0.01 65 1023.9
20210227212912 47 213 4.3 0.0 0.00 0.00 0.01 65 1023.9
20210227212328 47 211 5.2 0.0 0.00 0.00 0.01 65 1023.9
20210227211818 46 200 6.1 0.0 0.00 0.00 0.01 65 1024.0
20210227211331 46 213 7.0 0.0 0.00 0.00 0.01 65 1024.0
20210227210830 46 203 7.0 0.0 0.00 0.00 0.01 65 1024.0
20210227210316 47 205 7.8 0.0 0.00 0.00 0.01 65 1024.0
20210227205826 47 224 6.1 0.0 0.00 0.00 0.01 65 1024.0
20210227205622 48 213 6.1 0.0 0.00 0.00 0.01 64 1024.0
20210227204828 47 221 7.8 0.0 0.00 0.00 0.01 65 1024.0
20210227204324 47 217 7.0 0.0 0.00 0.00 0.01 65 1024.0
20210227203840 47 223 6.1 0.0 0.00 0.00 0.01 65 1024.0
20210227203328 48 215 5.2 0.0 0.00 0.00 0.01 64 1024.0
20210227202937 48 232 2.6 0.0 0.00 0.00 0.01 65 1024.0
20210227202312 48 218 1.7 0.0 0.00 0.00 0.01 62 1024.0
20210227201822 48 298 0.9 0.0 0.00 0.00 0.01 60 1023.9
20210227201314 48 298 3.5 0.0 0.00 0.00 0.01 61 1023.9
20210227200835 48 320 4.3 0.0 0.00 0.00 0.01 62 1023.9
20210227200314 48 222 4.3 0.0 0.00 0.00 0.01 62 1023.9
20210227195811 48 210 4.3 0.0 0.00 0.00 0.01 62 1023.9
20210227195324 49 223 4.3 0.0 0.00 0.00 0.01 60 1023.9
20210227194813 48 208 4.3 0.0 0.00 0.00 0.01 63 1023.9